DW4847 Weather Reports


Display with metric or nautical units.
time (UTC)temp
F
wind
direction
speed
MPH
gust
MPH
rain 1hr
in
rain 24hr
in
rain mn
in
humidity
%
barometer
mb
20200712152729 73 179 1.0 3.0 0.00 0.00 0.00 82 1005.4
20200712151735 73 289 0.0 1.0 0.00 0.00 0.00 83 1005.5
20200712150733 72 290 1.0 2.0 0.00 0.00 0.00 84 1005.5
20200712145724 73 43 1.0 3.0 0.00 0.00 0.00 82 1005.5
20200712144729 73 355 0.0 2.0 0.00 0.00 0.00 83 1005.4
20200712143733 73 171 1.0 2.0 0.00 0.00 0.00 83 1005.4
20200712142739 72 115 1.0 3.0 0.00 0.00 0.00 84 1005.2
20200712141729 72 49 1.0 5.0 0.00 0.00 0.00 83 1005.1
20200712140729 72 302 1.0 3.0 0.00 0.00 0.00 82 1004.9
20200712135734 73 287 1.0 5.0 0.00 0.00 0.00 82 1004.9
20200712134738 73 169 1.0 3.0 0.00 0.00 0.00 82 1004.7
20200712133731 72 5 2.0 4.0 0.00 0.00 0.00 83 1004.6
20200712132739 72 349 1.0 3.0 0.00 0.00 0.00 84 1004.8
20200712131728 72 252 0.0 4.0 0.00 0.00 0.00 83 1004.7
20200712130734 71 329 1.0 3.0 0.00 0.00 0.00 86 1004.7
20200712125741 70 280 1.0 3.0 0.00 0.00 0.00 86 1004.5
20200712124726 70 55 1.0 2.0 0.00 0.00 0.00 88 1004.3
20200712123731 69 121 0.0 1.0 0.00 0.00 0.00 89 1004.2
20200712122742 69 322 0.0 2.0 0.00 0.00 0.00 89 1004.3
20200712121726 69 235 0.0 2.0 0.00 0.00 0.00 89 1004.2
20200712120725 69 236 1.0 4.0 0.00 0.00 0.00 89 1004.0
20200712115731 68 142 1.0 3.0 0.00 0.00 0.00 89 1003.8
20200712114741 68 26 0.0 2.0 0.00 0.00 0.00 90 1003.8
20200712113727 68 43 0.0 1.0 0.00 0.00 0.00 90 1003.7
20200712112733 68 43 1.0 1.0 0.00 0.00 0.00 90 1003.6
20200712111738 67 45 0.0 3.0 0.00 0.00 0.00 90 1003.5
20200712110741 67 298 0.0 0.0 0.00 0.00 0.00 90 1003.5
20200712105724 67 298 1.0 2.0 0.00 0.01 0.00 90 1003.3
20200712104729 67 298 0.0 2.0 0.00 0.01 0.00 90 1003.2
20200712103734 67 298 1.0 2.0 0.00 0.01 0.00 90 1003.1
20200712102724 67 53 1.0 3.0 0.00 0.01 0.00 90 1003.2
20200712101728 67 49 0.0 2.0 0.00 0.01 0.00 91 1003.0
20200712100727 67 302 0.0 5.0 0.00 0.01 0.00 91 1003.0
20200712095733 67 339 1.0 3.0 0.00 0.03 0.00 91 1002.9
20200712094741 67 330 1.0 6.0 0.00 0.03 0.00 91 1002.8
20200712093726 67 337 0.0 0.0 0.00 0.03 0.00 91 1002.7
20200712092730 67 341 0.0 3.0 0.00 0.03 0.00 90 1002.7
20200712091736 67 20 1.0 2.0 0.00 0.03 0.00 90 1002.5
20200712090739 67 20 0.0 3.0 0.00 0.03 0.00 90 1002.6
20200712085723 68 26 0.0 0.0 0.00 0.12 0.00 90 1002.6
20200712084730 68 26 0.0 0.0 0.00 0.12 0.00 90 1002.6
20200712083734 68 22 0.0 2.0 0.00 0.12 0.00 90 1002.7
20200712082724 68 315 0.0 2.0 0.00 0.12 0.00 90 1002.6
20200712081730 68 322 1.0 2.0 0.00 0.12 0.00 89 1002.4
20200712080728 68 257 1.0 2.0 0.00 0.12 0.00 89 1002.3
20200712075733 68 207 1.0 6.0 0.00 0.15 0.00 89 1002.3
20200712074723 68 302 2.0 5.0 0.00 0.15 0.00 89 1002.2
20200712073732 69 225 0.0 0.0 0.00 0.15 0.00 90 1002.3
20200712072735 69 232 0.0 2.0 0.00 0.15 0.00 90 1002.3
20200712071742 69 231 0.0 2.0 0.00 0.15 0.00 90 1002.3
20200712070725 69 232 1.0 3.0 0.00 0.15 0.00 90 1002.5
20200712065729 69 15 1.0 3.0 0.00 0.17 0.00 90 1002.5
20200712064735 69 5 0.0 0.0 0.00 0.17 0.00 90 1002.5
20200712063741 69 5 0.0 2.0 0.00 0.17 0.00 90 1002.6
20200712062730 69 5 1.0 4.0 0.00 0.17 0.00 90 1002.6
20200712061734 69 208 0.0 2.0 0.00 0.17 0.00 90 1002.6
20200712060734 69 209 0.0 2.0 0.00 0.17 0.00 90 1002.5
20200712055739 69 315 0.0 3.0 0.00 0.21 0.00 90 1002.6
20200712054728 69 273 1.0 2.0 0.00 0.21 0.00 90 1002.7
20200712053733 69 276 0.0 2.0 0.00 0.21 0.00 90 1002.7
20200712052738 69 276 1.0 2.0 0.00 0.21 0.00 90 1002.7
20200712051722 70 319 0.0 0.0 0.00 0.21 0.00 90 1002.7
20200712050725 70 323 1.0 3.0 0.00 0.21 0.00 90 1002.9
20200712045731 70 321 1.0 2.0 0.00 0.26 0.00 89 1003.0
20200712044737 70 24 0.0 3.0 0.00 0.26 0.00 89 1003.0
20200712043742 70 61 0.0 2.0 0.00 0.26 0.00 89 1002.9
20200712042729 70 9 0.0 4.0 0.00 0.26 0.00 89 1003.1
20200712041733 70 273 1.0 2.0 0.00 0.26 0.00 89 1003.1
20200712040732 70 333 1.0 5.0 0.00 0.26 0.00 89 1003.1
20200712035736 70 248 0.0 4.0 0.00 0.27 0.26 89 1003.0
20200712034726 70 263 0.0 0.0 0.00 0.27 0.26 89 1003.0
20200712033731 70 267 1.0 4.0 0.00 0.27 0.26 89 1003.2
20200712032739 71 5 0.0 2.0 0.00 0.27 0.26 89 1003.2
20200712031741 71 5 0.0 2.0 0.00 0.27 0.26 89 1003.1
20200712030723 71 5 0.0 2.0 0.00 0.27 0.26 89 1003.0
20200712025727 71 52 1.0 4.0 0.00 0.35 0.26 89 1003.1
20200712024733 72 355 1.0 3.0 0.00 0.35 0.26 89 1003.0
20200712023802 72 355 0.0 0.0 0.00 0.35 0.26 90 1003.2
20200712022728 72 355 0.0 0.0 0.00 0.35 0.26 89 1003.2
20200712021733 72 355 0.0 0.0 0.00 0.35 0.26 89 1003.4
20200712020733 73 355 0.0 0.0 0.00 0.35 0.26 89 1003.5
20200712015734 73 339 0.0 1.0 0.00 0.53 0.26 89 1003.7
20200712014722 73 344 0.0 1.0 0.00 0.53 0.26 88 1003.6
20200712013731 74 344 0.0 1.0 0.00 0.53 0.26 88 1003.9
20200712012732 74 342 0.0 2.0 0.00 0.53 0.26 88 1004.2
20200712011739 74 178 0.0 1.0 0.00 0.53 0.26 87 1004.0
20200712010722 74 179 1.0 3.0 0.00 0.53 0.26 87 1004.1
20200712005728 74 174 1.0 3.0 0.00 0.57 0.26 87 1004.0
20200712004734 74 30 0.0 4.0 0.00 0.57 0.26 88 1003.7
20200712003738 75 5 1.0 2.0 0.00 0.57 0.26 88 1003.5
20200712002727 75 10 0.0 3.0 0.00 0.57 0.26 88 1003.3
20200712001732 75 355 0.0 1.0 0.00 0.57 0.26 87 1003.6
20200712000732 75 355 0.0 2.0 0.00 0.57 0.26 87 1003.6
20200711235737 76 355 1.0 2.0 0.00 0.59 0.26 86 1003.8
20200711234726 76 171 0.0 2.0 0.00 0.59 0.26 85 1004.0
20200711233732 76 171 1.0 2.0 0.00 0.59 0.26 85 1003.9
20200711232739 77 165 1.0 2.0 0.00 0.59 0.26 83 1003.7
20200711231723 77 269 0.0 2.0 0.00 0.59 0.26 83 1003.7
20200711230727 77 186 0.0 1.0 0.00 0.59 0.26 83 1003.6
20200711225732 77 185 0.0 2.0 0.00 0.59 0.26 82 1003.6
20200711224737 78 183 1.0 3.0 0.00 0.59 0.26 81 1003.5
20200711223722 78 323 2.0 4.0 0.00 0.59 0.26 81 1003.5
20200711222731 78 169 0.0 2.0 0.00 0.59 0.26 82 1003.5
20200711221737 78 169 2.0 3.0 0.00 0.59 0.26 81 1003.4
20200711220736 78 299 1.0 3.0 0.00 0.59 0.26 81 1003.4
20200711215722 78 246 0.0 2.0 0.00 0.59 0.26 81 1003.5
20200711214733 78 197 1.0 3.0 0.00 0.59 0.26 80 1003.5
20200711213736 78 14 2.0 4.0 0.00 0.59 0.26 82 1003.6
20200711212721 78 203 0.0 2.0 0.00 0.59 0.26 82 1003.7
20200711211727 79 288 1.0 2.0 0.00 0.59 0.26 81 1003.8
20200711210730 79 225 0.0 0.0 0.00 0.59 0.26 80 1004.0
20200711205731 79 175 0.0 0.0 0.00 0.59 0.26 81 1003.8
20200711204737 79 175 0.0 2.0 0.00 0.59 0.26 81 1004.0
20200711203742 80 173 1.0 4.0 0.00 0.59 0.26 78 1004.0
20200711202736 80 284 1.0 6.0 0.00 0.59 0.26 78 1004.1
20200711201737 81 188 1.0 4.0 0.00 0.59 0.26 77 1004.2
20200711200735 80 238 1.0 3.0 0.00 0.59 0.26 76 1004.2
20200711195742 81 252 1.0 3.0 0.00 0.65 0.26 76 1004.5
20200711194731 81 355 1.0 3.0 0.00 0.65 0.26 78 1004.5
20200711193736 81 180 1.0 4.0 0.00 0.65 0.26 75 1004.6
20200711192742 81 229 2.0 4.0 0.00 0.65 0.26 75 1004.6
20200711191731 81 141 1.0 3.0 0.00 0.65 0.26 75 1004.7
20200711190730 81 62 1.0 3.0 0.00 0.65 0.26 78 1004.7
20200711185739 80 172 1.0 3.0 0.00 0.65 0.26 78 1004.7
20200711184729 80 196 2.0 4.0 0.00 0.65 0.26 79 1004.7
20200711183737 80 186 1.0 3.0 0.00 0.65 0.26 83 1004.9
20200711182727 80 248 2.0 4.0 0.00 0.65 0.26 83 1005.1
20200711181732 79 157 2.0 3.0 0.00 0.65 0.26 82 1005.0
20200711180732 78 153 1.0 2.0 0.00 0.65 0.26 84 1005.2
20200711175737 78 159 1.0 4.0 0.00 0.65 0.26 82 1005.4
20200711174726 78 223 1.0 3.0 0.00 0.65 0.26 82 1005.6
20200711173731 78 275 1.0 3.0 0.00 0.65 0.26 83 1005.7
20200711172735 78 221 0.0 3.0 0.00 0.65 0.26 82 1005.8
20200711171741 79 279 1.0 5.0 0.00 0.65 0.26 81 1006.0
20200711170723 79 172 0.0 2.0 0.00 0.65 0.26 82 1006.0
20200711165727 79 55 0.0 2.0 0.00 0.65 0.26 82 1006.0
20200711164732 78 39 1.0 3.0 0.00 0.65 0.26 82 1006.2
20200711163736 78 196 0.0 2.0 0.00 0.65 0.26 83 1006.2
20200711162727 79 194 1.0 3.0 0.00 0.65 0.26 80 1006.2
20200711161736 79 160 1.0 3.0 0.00 0.65 0.26 80 1006.2
20200711160729 80 132 2.0 3.0 0.00 0.65 0.26 78 1006.2
20200711155733 80 227 2.0 4.0 0.00 0.65 0.26 78 1006.2
20200711154742 80 186 2.0 3.0 0.00 0.65 0.26 77 1006.1
20200711153728 80 159 1.0 3.0 0.00 0.65 0.26 76 1006.1